Tegucigalpa, Honduras

3:44 PM CST on February 24, 2017 (GMT -0600)
Toncontin International

Weather History for MHTG - November, 2012

Change the Weather History Date:

Monday, November 5, 2012

  Actual Average Record
Temperature  
Mean Temperature 74 °F -  
Max Temperature 83 °F 76 °F 83 °F (2012)
Min Temperature 64 °F 60 °F 55 °F (2010)
Cooling Degree Days 8    
Growing Degree Days 24 (Base 50)    
Moisture  
Dew Point 67 °F    
Average Humidity 87    
Maximum Humidity 100    
Minimum Humidity 49    
Precipitation  
Precipitation 0.00 in 0.05 in - ()
Sea Level Pressure  
Sea Level Pressure 30.02 in    
Wind  
Wind Speed 4 mph ()    
Max Wind Speed 13 mph    
Max Gust Speed -    
Visibility 6.0 miles    
Events Rain    
Averages and records for this station are not official NWS values.
T = Trace of Precipitation, MM = Missing Value Source: Averaged Metar Reports

Daily Weather History Graph

Daily Weather History Graph

Search for Another Location

Airport or City:

Trip Planner

Search our weather history database for the weather conditions in past years. The results will help you decide how hot, cold, wet, or windy it might be!

Date:

Astronomy

Nov. 05, 2012 Rise Set
Actual Time 5:45 AM CST 5:19 PM CST
Civil Twilight 5:23 AM CST 5:41 PM CST
Nautical Twilight 4:57 AM CST 6:07 PM CST
Astronomical Twilight 4:32 AM CST 6:32 PM CST
Moon 10:54 PM CST (11/5) 11:02 AM CST (11/5)
Length of Visible Light 12h 18m
Length of Day
11h 34m
Waning Gibbous, 62% of the Moon is Illuminated
Nov 5
Waning Gibbous
Nov 6
Last Quarter
Nov 13
New
Nov 20
First Quarter
Nov 28
Full

Hourly Weather History & Observations

Time (CST) Temp. Heat Index Dew Point Humidity Pressure Visibility Wind Dir Wind Speed Gust Speed Precip Events Conditions
12:00 AM 67 °F - 67 °F 99% 29.94 in 6 mi Calm Calm - -   Mist
12:00 AM 66.2 °F - 66.2 °F 100% 30.09 in 6.2 mi Calm Calm - N/A   Scattered Clouds
1:00 AM 66.2 °F - 66.2 °F 100% 30.09 in 6.2 mi Calm Calm - N/A   Scattered Clouds
2:00 AM 64.4 °F - 64.4 °F 100% 30.09 in 6.2 mi Calm Calm - N/A   Scattered Clouds
3:00 AM 66 °F - 66 °F 98% 29.90 in 6 mi Calm Calm - -   Mist
3:00 AM 66.2 °F - 66.2 °F 100% 30.04 in 6.2 mi Calm Calm - N/A   Scattered Clouds
4:00 AM 66.2 °F - 66.2 °F 100% 30.04 in 6.2 mi Calm Calm - N/A   Scattered Clouds
5:00 AM 64.4 °F - 64.4 °F 100% 30.06 in 6.2 mi North 4.6 mph - N/A   Scattered Clouds
6:00 AM 65 °F - 65 °F 98% 29.94 in 5 mi NNE 4.6 mph - -   Mist
6:00 AM 64.4 °F - 64.4 °F 100% 30.06 in 5.0 mi NNE 4.6 mph - N/A   Mostly Cloudy
7:00 AM 66.2 °F - 66.2 °F 100% 30.09 in 5.0 mi Calm Calm - N/A   Mostly Cloudy
9:00 AM 69 °F - 68 °F 96% 29.95 in 4 mi NE 9.2 mph - -   Haze
9:00 AM 69.8 °F - 68.0 °F 94% 30.12 in 3.7 mi NE 9.2 mph - N/A   Mostly Cloudy
10:00 AM 71.6 °F - 68.0 °F 88% 30.12 in 3.7 mi NNE 9.2 mph - N/A   Mostly Cloudy
11:00 AM 78.8 °F - 69.8 °F 74% 30.09 in 6.2 mi North 11.5 mph - N/A   Mostly Cloudy
12:00 PM 80 °F - 68 °F 58% 29.83 in 9 mi North 11.5 mph - -   Haze
12:00 PM 80.6 °F 83.2 °F 68.0 °F 65% 30.06 in 6.2 mi North 11.5 mph - N/A   Mostly Cloudy
1:00 PM 80.6 °F 83.2 °F 68.0 °F 65% 30.04 in 6.2 mi North 11.5 mph - N/A   Mostly Cloudy
2:00 PM 78.8 °F - 66.2 °F 65% 30.01 in 6.2 mi NNE 6.9 mph - N/A Rain Light Rain
3:00 PM 82 °F - 66 °F 49% 29.74 in 7 mi North 9.2 mph - - Rain Light Rain
3:00 PM 82.4 °F 84.6 °F 66.2 °F 58% 29.98 in 6.2 mi North 9.2 mph - N/A   Mostly Cloudy
4:00 PM 78.8 °F - 66.2 °F 65% 29.98 in 6.2 mi ENE 4.6 mph - N/A   Mostly Cloudy
5:00 PM 75.2 °F - 66.2 °F 73% 30.01 in 6.2 mi East 5.8 mph - N/A   Scattered Clouds
6:00 PM 71 °F - 67 °F 85% 29.86 in 9 mi North 12.7 mph - -   Haze
6:00 PM 71.6 °F - 68.0 °F 88% 30.04 in 6.2 mi North 12.7 mph - N/A   Scattered Clouds
7:00 PM 69.8 °F - 68.0 °F 94% 30.06 in 6.2 mi North 8.1 mph - N/A   Mostly Cloudy
8:00 PM 69.8 °F - 68.0 °F 94% 30.09 in 6.2 mi NNE 3.5 mph - N/A   Mostly Cloudy
9:00 PM 68 °F - 67 °F 94% 29.94 in 6 mi North 5.8 mph - -   Haze
9:00 PM 68.0 °F - 66.2 °F 94% 30.09 in 6.2 mi North 5.8 mph - N/A   Partly Cloudy
10:00 PM 66.2 °F - 66.2 °F 100% 30.09 in 6.2 mi ENE 3.5 mph - N/A   Partly Cloudy
11:00 PM 68.0 °F - 68.0 °F 100% 30.09 in 6.2 mi NNE 6.9 mph - N/A   Mostly Cloudy